Home > Weather > Bern > Past weeks

Flag for Switzerland Weather for the Past 2 Weeks in Bern, Bern, Switzerland

Now
39 °F

Clear.


Feels Like: 39 °F
Forecast: 39 / 70 °F
Wind: 2 mph from North

Location: Bern / Belp

Current Time: May 6, 2016 at 2:09:43 AM

Latest Report: May 6, 2016 at 1:20 AM


Visibility: 10 mi

Pressure: 30.04 "Hg (28.13 "Hg at 533m altitude)

Humidity: 100%

Dew Point: 39 °F

Location of BernLocation

Historic Weather in Bern — Graph

°F

Bern Temperature Yesterday

Maximum temperature yesterday: 66 °F (at 4:20 PM)
Minimum temperature yesterday: 30 °F (at 6:50 AM)
Average temperature yesterday: 49 °F

High & Low Weather Summary for the Past Weeks

 TemperatureHumidityPressure
High72 °F (Apr 21, 3:20 PM)100% (Apr 21, 12:20 AM)30.33 "Hg (Apr 21, 12:20 AM)
Low28 °F (Apr 28, 6:50 AM)32% (Apr 28, 4:20 PM)29.68 "Hg (Apr 26, 4:20 PM)
Average46 °F80%30.01 "Hg
* Reported Apr 21 12:20 AM — May 6 12:50 AM, Bern, Weather by CustomWeather, © 2016

Note: Actual official high and low records may vary slightly from our data, if they occured in-between our weather recording intervals... More about our weather records

Advertising

Bern Weather History for the Previous 24 Hours

Scroll right to see more
 ConditionsComfort  
Time TempWeatherWind HumidityBarometerVisibility
12:50 AM
Fri, May 6
43 °FClear.1 mph100%30.04 "Hg10 mi
12:20 AM43 °FClear.2 mph100%30.04 "Hg10 mi
11:50 PM
Thu, May 5
43 °FClear.1 mph93%30.04 "Hg10 mi
11:20 PM45 °FClear.1 mph93%30.04 "Hg10 mi
10:50 PM46 °FClear.1 mph87%30.04 "Hg10 mi
10:20 PM48 °FClear.5 mph82%30.04 "Hg10 mi
9:50 PM50 °FClear.1 mph76%30.01 "Hg10 mi
9:20 PM55 °FSunny.2 mph59%30.01 "Hg10 mi
8:50 PM59 °FSunny.5 mph51%30.01 "Hg10 mi
8:20 PM63 °FSunny.2 mph42%30.01 "Hg10 mi
7:50 PM64 °FSunny.3 mph40%30.01 "Hg10 mi
7:20 PM64 °FSunny.2 mph43%30.01 "Hg10 mi
6:50 PM66 °FSunny.5 mph37%30.01 "Hg10 mi
6:20 PM66 °FPassing clouds.7 mph40%30.01 "HgN/A
5:50 PM66 °FPassing clouds.7 mph43%30.01 "HgN/A
5:20 PM66 °FPassing clouds.6 mph43%30.01 "HgN/A
4:50 PM66 °FPassing clouds.5 mph40%30.01 "HgN/A
4:20 PM66 °FPassing clouds.5 mph40%30.04 "HgN/A
3:50 PM64 °FPassing clouds.7 mph46%30.04 "HgN/A
3:20 PM64 °FSunny.3 mph46%30.04 "Hg10 mi
2:50 PM63 °FSunny.7 mph49%30.04 "Hg10 mi
2:20 PM63 °FSunny.3 mph45%30.07 "Hg10 mi
1:50 PM63 °FSunny.3 mph42%30.07 "Hg10 mi
1:20 PM61 °FSunny.5 mph45%30.07 "Hg10 mi
12:50 PM59 °FSunny.5 mph45%30.07 "Hg10 mi
12:20 PM59 °FSunny.8 mph48%30.07 "Hg10 mi
11:50 AM57 °FSunny.7 mph51%30.07 "Hg10 mi
11:20 AM55 °FSunny.5 mph55%30.09 "Hg10 mi
10:50 AM54 °FSunny.6 mph58%30.09 "Hg10 mi
10:20 AM50 °FPassing clouds.5 mph62%30.09 "HgN/A
9:50 AM48 °FSunny.1 mph71%30.09 "Hg10 mi
9:20 AM46 °FSunny.1 mph71%30.12 "Hg10 mi
8:50 AM43 °FSunny.1 mph81%30.12 "Hg10 mi
8:20 AM41 °FSunny.1 mph87%30.12 "Hg10 mi
7:50 AM39 °FSunny.2 mph87%30.12 "Hg10 mi
7:20 AM34 °FSunny.1 mph100%30.15 "Hg10 mi
6:50 AM30 °FClear.2 mph100%30.15 "Hg10 mi
6:20 AM32 °FClear.2 mph100%30.15 "Hg10 mi
5:50 AM32 °FClear.2 mph100%30.15 "Hg10 mi
5:20 AM34 °FClear.3 mph100%30.15 "Hg10 mi
4:50 AM32 °FClear.1 mph100%30.15 "Hg10 mi
4:20 AM32 °FClear.2 mph100%30.15 "Hg10 mi
3:50 AM32 °FClear.1 mph100%30.18 "Hg10 mi
3:20 AM36 °FClear.2 mph100%30.18 "Hg10 mi
2:50 AM34 °FClear.2 mph100%30.18 "Hg10 mi
2:20 AM34 °FClear.1 mph100%30.18 "Hg10 mi
Weather by CustomWeather, © 2016

See weather overviewHow to use our weather pages